This demonstration page uses our WeatherBlox Daily Observations layout. Learn more.

Left ArrowRight Arrow

Hourly Observations for January 19, 2020

Temp ( °F °C ) Dew Point ( °F °C ) Humidity (%) Winds ( mph kmh ) Pressure ( in mb ) Visibility ( mi km ) Precip ( " mm )
12:10 am 00:10 Cloudy 51 10.6 50 10 96 96 Calm 30.10 1019 7 11 0.00 0.00
12:31 am 00:31 Cloudy 51 10.6 50 10 96 96 Calm 30.10 1019 10 16 0.00 0.00
12:53 am 00:53 Cloudy 51 10.6 50 10 96 96 Calm 30.08 1019 10 16 0.00 0.00
1:09 am 01:09 Cloudy with Light Rain 51 10.6 50 10 96 96 Calm 30.08 1019 10 16 0.00 0.00
1:53 am 01:53 Cloudy with Light Rain 51 10.6 50 10 96 96 Calm 30.06 1018 7 11 0.00 0.00
2:02 am 02:02 Cloudy with Light Rain 52 11.1 50 10 93 93 Calm 30.07 1018 10 16 0.00 0.00
2:53 am 02:53 Cloudy 54 12.2 51 10.6 90 90 WNW 7 11 30.05 1018 10 16 0.00 0.00
3:24 am 03:24 Cloudy 54 12.2 50 10 87 87 NW 7 11 30.06 1018 10 16 0.00 0.00
3:53 am 03:53 Cloudy 53 11.7 48 8.9 83 83 WNW 9 15 30.06 1018 10 16 0.00 0.00
4:00 am 04:00 Cloudy 53 11.7 48 8.9 83 83 NW 7 11 30.06 1018 10 16 0.00 0.00
4:40 am 04:40 Mostly Cloudy 51 10.6 46 7.8 83 83 WNW 10 17 30.07 1018 10 16 0.00 0.00
4:53 am 04:53 Cloudy 51 10.6 45 7.2 80 80 WNW 10 17 30.07 1018 10 16 0.00 0.00
5:22 am 05:22 Mostly Clear 49 9.4 42 5.6 77 77 NNW 13 20 30.09 1019 10 16 0.00 0.00
5:53 am 05:53 Mostly Clear 47 8.3 39 3.9 74 74 NW 10 17 30.09 1019 10 16 0.00 0.00
6:34 am 06:34 Mostly Cloudy 45 7.2 38 3.3 77 77 NW 12 19 30.13 1020 10 16 0.00 0.00
6:53 am 06:53 Cloudy 44 6.7 37 2.8 76 76 NW 9 15 30.12 1020 10 16 0.00 0.00
7:36 am 07:36 Partly Cloudy 43 6.1 34 1.1 71 71 NW 14 22 30.16 1021 10 16 0.00 0.00
7:53 am 07:53 Sunny 42 5.6 32 0 68 68 NW 9 15 30.15 1021 10 16 0.00 0.00
8:53 am 08:53 Sunny 40 4.4 26 -3.3 58 58 NNW 10 17 30.17 1022 10 16 0.00 0.00
9:53 am 09:53 Sunny 40 4.4 27 -2.8 60 60 NW 13 20 30.19 1022 10 16 0.00 0.00
10:53 am 10:53 Sunny 40 4.4 24 -4.4 53 53 NW 14 22 30.19 1023 10 16 0.00 0.00
11:53 am 11:53 Sunny 43 6.1 22 -5.6 43 43 WNW 15 24 30.19 1022 10 16 0.00 0.00
12:53 pm 12:53 Sunny 44 6.7 21 -6.1 40 40 NW 14 22 30.16 1021 10 16 0.00 0.00
1:53 pm 13:53 Sunny 46 7.8 20 -6.7 35 35 WNW 16 26 30.13 1020 10 16 0.00 0.00
2:53 pm 14:53 Sunny 46 7.8 18 -7.8 32 32 NW 15 24 30.13 1020 10 16 0.00 0.00
3:53 pm 15:53 Sunny 46 7.8 19 -7.2 34 34 WNW 17 28 30.14 1021 10 16 0.00 0.00
4:53 pm 16:53 Sunny 46 7.8 20 -6.7 35 35 NW 16 26 30.15 1021 10 16 0.00 0.00
5:53 pm 17:53 Sunny 43 6.1 20 -6.7 40 40 NW 13 20 30.17 1022 10 16 0.00 0.00
6:53 pm 18:53 Clear 42 5.6 19 -7.2 40 40 WNW 12 19 30.20 1023 10 16 0.00 0.00
7:53 pm 19:53 Clear 40 4.4 19 -7.2 43 43 NW 12 19 30.22 1023 10 16 0.00 0.00
8:53 pm 20:53 Clear 38 3.3 19 -7.2 46 46 NNW 12 19 30.24 1024 10 16 0.00 0.00
9:53 pm 21:53 Clear 36 2.2 18 -7.8 48 48 NNW 13 20 30.25 1024 10 16 0.00 0.00
10:53 pm 22:53 Clear 33 0.6 16 -8.9 49 49 N 10 17 30.26 1025 10 16 0.00 0.00
11:53 pm 23:53 Clear 31 -0.6 15 -9.4 52 52 NNW 13 20 30.27 1025 10 16 0.00 0.00

Powered by AerisWeather